Wind_Speed
35 38 46 42 38 37 23 22 35 31 30 25 27 21 21 22 23 22 25 19 15 18 23 28 30 30 29 28 29 29 29 27 27 25 24 21 17 16 15 13 10 8 6 5
35 47 39 38 37 37 34 24 24 36 23 25 26 26 21 25 26 25 32 23 17 19 25 30 30 30 32 29 26 26 30 31 28 27 23 21 20 19 17 15 12 9 6 5
40 28 42 39 40 41 38 36 29 30 27 22 22 25 25 29 31 32 33 31 24 21 22 28 32 33 34 34 31 27 26 32 30 28 27 25 26 25 22 17 12 9 7 6
33 37 12 28 42 40 43 38 35 25 15 12 26 8 29 30 32 34 34 34 31 27 27 27 29 32 32 35 34 30 26 31 32 31 29 28 25 24 20 16 13 10 8 6
31 22 38 20 35 37 40 32 36 39 33 25 19 15 29 31 35 35 36 32 37 30 29 30 28 24 26 30 35 33 32 32 34 34 31 30 28 25 21 17 15 13 11 8
27 30 19 28 32 21 31 5 23 31 30 21 35 22 25 40 35 32 34 33 33 35 31 31 30 29 24 25 29 33 35 35 36 36 35 32 29 26 23 19 17 15 12 11
23 35 29 23 9 30 24 29 6 11 11 14 30 29 37 36 39 31 30 27 26 29 33 34 33 35 34 26 26 32 34 36 38 37 37 34 30 27 23 20 19 16 13 12
7 12 29 28 32 20 33 34 16 8 4 15 27 16 31 50 36 35 24 25 31 32 31 36 35 29 35 31 26 30 35 36 38 38 37 34 32 28 25 23 21 18 15 13
5 7 14 30 36 27 30 44 39 14 6 8 26 25 36 30 37 43 36 32 27 21 26 34 35 33 31 33 31 33 36 37 38 37 36 36 33 30 27 24 22 20 18 16
7 13 16 22 31 39 35 23 32 35 7 5 6 27 28 40 33 33 40 38 32 26 20 34 36 33 31 31 31 30 33 37 39 38 37 36 33 31 29 27 25 22 20 19
11 10 21 21 20 34 38 39 26 34 30 8 2 11 31 32 35 40 40 34 23 15 19 26 32 34 33 31 32 32 33 36 39 39 38 37 35 33 32 30 28 25 23 23
15 9 14 30 25 22 24 40 38 25 21 35 13 22 16 20 27 24 40 31 20 13 12 24 29 35 34 31 30 31 33 37 40 39 39 37 36 35 34 31 29 27 26 24
8 3 8 13 27 30 25 26 36 36 19 37 22 13 35 22 30 23 27 34 31 23 17 17 33 32 33 28 30 28 33 36 38 39 39 38 37 36 34 31 29 28 27 26
13 14 17 20 9 5 17 24 30 23 25 25 36 34 41 35 26 23 19 24 27 23 23 22 26 32 34 29 30 30 30 34 37 38 38 39 38 36 34 32 30 30 29 27
11 19 25 35 40 29 29 25 18 15 21 20 30 30 32 34 35 23 25 27 26 23 22 22 27 29 32 35 31 32 29 29 34 37 37 37 35 35 34 34 32 31 30 28
18 24 22 31 33 30 36 30 19 16 18 29 27 33 38 31 30 29 32 32 36 30 29 30 34 38 35 34 23 30 30 31 31 34 35 34 34 34 33 32 32 31 30 28
20 22 15 13 11 11 20 33 18 12 14 26 38 30 26 27 29 30 26 27 36 33 34 41 43 41 33 34 28 27 27 28 29 28 29 32 31 30 30 30 31 30 29 28
26 23 20 12 6 4 10 15 17 21 16 26 37 36 33 34 30 30 28 30 37 35 40 43 44 41 36 35 35 30 25 26 24 21 20 24 27 27 27 27 28 28 27 26
31 25 14 5 4 6 18 19 18 18 12 19 26 33 27 26 22 18 17 30 31 27 27 37 38 36 36 35 36 33 29 26 23 20 19 17 17 19 20 23 25 25 25 24
30 31 26 5 3 7 10 11 20 19 14 13 23 29 31 26 19 19 20 19 18 30 36 37 38 35 35 39 38 36 33 29 23 22 22 23 22 21 20 19 19 18 19 19
30 30 31 24 8 3 4 16 26 8 6 16 20 26 29 25 18 16 19 18 16 33 39 40 38 36 36 40 37 38 37 33 27 26 25 24 22 21 18 17 16 17 18 21
10 9 6 6 12 3 11 25 21 18 16 20 25 27 27 27 23 17 15 17 21 29 32 33 32 35 36 36 35 38 38 36 32 30 27 25 22 22 20 18 19 21 22 23
9 8 2 4 6 3 24 34 32 25 19 19 22 26 31 31 30 25 19 17 19 24 27 28 29 30 32 35 36 43 41 39 37 34 32 30 26 25 26 25 24 24 23 23
25 19 15 4 18 6 25 23 24 24 22 20 20 21 26 28 31 30 26 22 21 21 23 24 24 26 30 35 36 43 43 43 42 39 36 32 31 28 28 29 28 26 22 21
26 26 18 21 17 9 10 15 14 18 24 20 17 18 21 23 22 26 29 27 26 26 26 25 24 24 26 29 31 33 38 41 40 37 37 38 37 34 34 32 32 31 30 28
29 25 23 19 20 14 3 13 15 15 21 19 17 18 19 21 21 19 22 26 25 26 28 28 28 27 26 26 26 26 28 28 28 28 30 31 33 32 33 35 37 36 33 32
Wind_Direction
209 209 212 213 213 219 219 229 228 225 223 223 233 245 243 244 249 228 217 216 215 212 205 202 202 204 204 204 207 211 207 206 206 201 198 193 190 192 183 184 183 187 190 190
213 220 226 224 217 225 221 224 227 229 229 228 230 243 248 248 248 247 232 228 225 220 210 206 204 208 209 210 207 209 210 208 208 205 201 192 189 190 189 191 185 179 186 207
221 226 228 225 222 221 225 220 218 224 227 231 233 248 242 243 239 244 240 235 240 234 227 212 207 211 210 210 211 210 207 206 206 208 202 196 196 193 193 193 189 183 184 206
232 229 248 234 232 224 227 223 218 218 218 216 225 251 240 235 240 241 242 240 237 231 228 218 215 216 216 211 210 212 208 203 205 208 207 201 201 199 195 193 195 199 201 205
224 236 221 236 227 225 235 235 231 227 241 245 227 229 242 241 240 241 240 234 237 234 234 230 222 217 212 210 210 209 212 205 207 208 208 206 203 203 202 198 203 207 211 213
238 232 229 240 244 231 238 241 236 233 240 235 235 232 241 237 239 241 236 233 236 233 233 232 230 225 214 205 203 204 208 207 206 209 208 208 205 205 207 205 209 210 212 222
242 237 229 231 246 237 231 212 216 219 211 234 237 232 230 236 233 237 234 232 228 228 226 236 230 227 225 210 203 203 204 208 205 209 210 207 206 207 209 210 216 216 213 219
275 233 229 222 238 227 217 201 190 196 193 229 228 227 231 232 230 235 232 239 252 254 235 231 231 228 224 220 210 210 207 207 209 208 211 209 205 205 208 212 215 217 214 210
301 246 209 215 230 220 223 217 216 240 266 229 216 232 241 235 237 234 234 243 245 256 238 229 230 228 224 219 215 207 209 208 213 211 211 213 208 204 206 212 217 219 218 215
302 299 262 222 223 223 224 214 209 225 196 242 233 211 230 227 225 227 237 240 249 257 232 226 231 224 224 225 217 209 210 211 214 212 212 215 213 209 206 211 215 218 222 224
296 281 272 264 240 231 225 233 225 228 229 213 173 233 226 232 235 240 237 240 232 236 225 227 220 219 222 228 231 220 210 210 213 214 214 215 214 212 210 210 214 218 221 225
286 277 269 267 242 234 233 227 232 229 217 229 259 244 229 218 233 243 236 229 224 227 221 218 215 216 218 221 221 223 214 213 213 212 214 216 216 215 216 213 215 219 222 225
290 290 306 285 250 234 233 224 223 229 242 226 225 230 228 216 219 221 226 230 235 244 241 227 215 215 218 211 215 215 214 211 213 212 212 213 216 218 216 216 216 220 224 225
278 269 276 257 208 256 231 212 217 236 240 248 233 239 240 231 239 215 212 223 223 230 238 231 227 220 213 217 216 212 211 211 211 212 210 212 214 216 216 217 217 221 226 226
284 283 293 257 250 267 271 238 209 246 240 254 243 244 236 246 234 232 231 224 211 218 232 230 226 213 213 214 217 216 210 212 211 211 211 212 210 213 215 217 217 220 225 227
269 272 295 273 247 261 273 245 240 259 250 243 229 240 245 241 242 244 248 240 232 232 236 236 216 223 209 213 204 211 213 211 210 210 211 212 212 212 213 216 218 221 223 226
261 264 282 268 255 252 254 228 228 233 230 221 222 228 230 237 247 254 252 249 231 233 238 234 221 219 219 213 205 206 215 212 211 214 210 211 212 212 214 216 219 221 225 228
254 256 263 284 271 178 192 163 172 177 190 200 218 224 235 243 250 254 255 236 230 250 235 226 207 211 210 207 208 208 201 207 206 197 200 209 212 212 214 219 224 224 226 229
241 242 261 248 217 159 149 144 145 146 117 183 205 217 222 225 222 231 233 235 247 237 203 193 189 197 205 200 204 205 196 192 193 187 185 184 189 193 199 208 217 223 226 229
239 245 243 239 253 201 161 162 170 156 86 137 184 200 211 214 214 234 253 255 240 193 180 180 187 200 193 197 197 199 201 201 194 195 198 201 204 205 207 209 214 219 223 225
217 238 229 241 259 287 160 157 171 150 116 109 149 175 187 196 201 205 231 247 205 186 186 190 193 199 197 201 196 198 199 198 193 192 199 198 199 203 201 199 203 213 221 230
164 182 176 218 226 242 124 141 164 130 124 123 122 135 162 168 161 162 194 217 196 188 190 194 199 201 201 207 201 199 199 202 205 202 194 188 191 199 195 202 211 221 224 229
51 73 53 297 15 314 110 127 134 128 131 130 127 138 149 152 159 158 161 179 180 186 195 196 198 205 212 208 200 199 201 198 200 204 203 206 207 213 217 221 230 233 237 239
47 48 50 75 19 146 112 124 137 132 136 136 130 133 148 153 157 158 158 157 161 170 181 189 200 207 208 209 205 206 204 207 207 213 218 219 225 229 230 233 240 244 246 258
38 31 27 14 45 92 104 116 150 149 142 145 137 136 146 156 155 160 157 157 155 157 164 172 190 202 207 209 211 212 216 218 225 229 229 231 236 233 239 243 242 238 250 251
38 24 24 7 9 7 245 164 169 176 155 159 156 149 147 160 162 164 163 163 165 164 162 163 169 178 185 187 193 199 207 215 219 224 231 236 238 239 244 245 250 252 255 256
Height
3095 3096 3090 3095 3106 3111 3117 3119 3122 3127 3132 3136 3136 3137 3137 3141 3143 3146 3149 3152 3154 3156 3161 3165 3169 3173 3177 3181 3185 3190 3194 3199 3202 3206 3209 3213 3217 3220 3222 3225 3227 3228 3229 3231
3090 3084 3095 3101 3106 3110 3115 3117 3119 3124 3128 3132 3134 3132 3135 3136 3138 3143 3146 3149 3152 3154 3156 3161 3165 3170 3173 3178 3182 3186 3191 3195 3200 3204 3209 3212 3216 3219 3221 3224 3226 3227 3229 3231
3082 3088 3093 3096 3100 3105 3108 3112 3117 3122 3125 3128 3130 3128 3130 3129 3133 3137 3140 3146 3150 3151 3154 3157 3160 3165 3169 3173 3178 3183 3187 3192 3197 3202 3206 3209 3212 3216 3218 3222 3224 3227 3229 3231
3082 3087 3089 3091 3094 3100 3102 3107 3115 3119 3123 3123 3125 3122 3121 3124 3126 3130 3134 3139 3143 3147 3150 3154 3156 3160 3164 3169 3175 3180 3184 3189 3194 3199 3203 3207 3211 3215 3219 3221 3223 3225 3228 3230
3075 3079 3086 3086 3087 3096 3098 3105 3111 3117 3119 3121 3119 3120 3115 3119 3119 3122 3127 3132 3137 3143 3147 3149 3153 3157 3161 3165 3170 3175 3181 3184 3190 3195 3201 3205 3208 3212 3216 3218 3221 3224 3226 3229
3072 3077 3081 3084 3090 3093 3099 3104 3107 3113 3116 3112 3110 3114 3105 3106 3112 3118 3123 3127 3132 3138 3142 3146 3151 3155 3158 3162 3165 3170 3175 3180 3185 3191 3197 3201 3205 3209 3212 3216 3219 3222 3225 3228
3066 3069 3076 3082 3084 3088 3093 3100 3104 3109 3106 3096 3104 3107 3099 3102 3109 3113 3118 3123 3127 3133 3138 3142 3145 3147 3152 3157 3161 3165 3170 3177 3181 3187 3193 3197 3202 3206 3210 3213 3217 3220 3223 3226
3062 3065 3069 3075 3078 3082 3085 3090 3088 3096 3094 3092 3098 3086 3087 3098 3105 3110 3114 3119 3124 3127 3135 3134 3139 3143 3147 3152 3157 3162 3166 3173 3178 3183 3189 3194 3198 3202 3207 3210 3214 3218 3221 3224
3061 3060 3061 3066 3070 3077 3078 3077 3086 3085 3084 3084 3084 3085 3090 3094 3099 3105 3109 3113 3116 3119 3125 3130 3133 3138 3142 3145 3151 3157 3163 3168 3175 3180 3185 3190 3194 3198 3203 3208 3211 3214 3218 3221
3058 3058 3057 3059 3063 3068 3069 3077 3081 3079 3081 3084 3073 3075 3077 3086 3091 3098 3102 3107 3112 3113 3119 3123 3127 3132 3138 3141 3147 3153 3159 3164 3171 3177 3180 3186 3191 3195 3198 3202 3207 3211 3215 3218
3055 3054 3053 3056 3056 3060 3066 3066 3069 3073 3072 3069 3076 3069 3076 3083 3089 3094 3098 3104 3107 3109 3113 3118 3123 3127 3133 3137 3142 3147 3153 3159 3164 3171 3176 3181 3187 3191 3194 3198 3203 3207 3210 3213
3050 3049 3049 3046 3052 3053 3055 3059 3062 3062 3063 3064 3067 3067 3071 3080 3086 3091 3094 3100 3103 3105 3109 3113 3119 3124 3127 3132 3136 3140 3146 3152 3159 3165 3171 3176 3182 3186 3190 3193 3199 3203 3207 3210
3044 3046 3047 3041 3045 3045 3046 3050 3053 3056 3058 3055 3062 3061 3069 3073 3078 3083 3086 3093 3098 3102 3105 3109 3112 3117 3122 3127 3131 3135 3140 3146 3154 3159 3164 3170 3174 3180 3185 3190 3194 3198 3202 3206
3040 3043 3049 3042 3036 3039 3039 3040 3044 3046 3050 3052 3049 3058 3063 3067 3072 3078 3081 3086 3092 3094 3098 3102 3106 3112 3118 3122 3127 3132 3137 3142 3148 3153 3158 3163 3169 3175 3180 3186 3190 3194 3197 3202
3038 3040 3041 3032 3030 3034 3033 3032 3037 3040 3045 3045 3050 3052 3059 3062 3067 3071 3075 3078 3082 3087 3091 3096 3100 3106 3113 3118 3122 3129 3135 3139 3143 3148 3153 3158 3164 3170 3175 3180 3185 3189 3192 3197
3036 3035 3034 3024 3025 3028 3025 3026 3030 3034 3037 3037 3046 3047 3054 3058 3060 3063 3065 3069 3073 3078 3083 3088 3097 3099 3107 3113 3118 3125 3129 3133 3138 3142 3148 3155 3159 3164 3170 3175 3180 3184 3188 3193
3032 3032 3031 3021 3023 3023 3021 3013 3022 3028 3027 3032 3039 3045 3047 3051 3055 3058 3058 3061 3064 3068 3073 3078 3086 3094 3101 3109 3115 3120 3124 3130 3134 3139 3144 3150 3155 3160 3165 3170 3175 3180 3184 3187
3025 3027 3027 3020 3017 3017 3012 3013 3014 3018 3020 3025 3029 3038 3043 3047 3049 3050 3049 3054 3057 3059 3060 3066 3075 3088 3097 3104 3111 3116 3123 3127 3131 3136 3140 3145 3150 3156 3161 3165 3170 3175 3178 3182
3018 3021 3022 3017 3013 3010 3010 3009 3011 3013 3018 3020 3025 3032 3036 3041 3042 3044 3043 3046 3049 3049 3051 3059 3071 3081 3090 3098 3105 3113 3120 3124 3128 3132 3137 3143 3148 3152 3156 3160 3165 3169 3173 3176
3012 3015 3019 3013 3008 2998 3002 3001 3006 3010 3016 3018 3021 3027 3032 3036 3037 3036 3038 3041 3041 3045 3052 3059 3069 3076 3084 3093 3100 3109 3116 3121 3124 3129 3135 3140 3144 3148 3153 3157 3161 3165 3168 3171
3006 3009 3010 3010 3007 2996 2996 2999 3005 3013 3026 3018 3017 3021 3025 3030 3033 3034 3036 3037 3037 3043 3050 3057 3065 3073 3080 3088 3097 3104 3111 3117 3123 3127 3133 3137 3141 3145 3150 3153 3157 3160 3163 3166
3002 3003 3004 3004 3004 2993 2992 2997 3006 3015 3019 3018 3018 3019 3021 3025 3029 3033 3035 3036 3037 3042 3048 3054 3061 3069 3076 3084 3092 3099 3107 3113 3119 3123 3128 3133 3137 3141 3146 3150 3153 3155 3158 3160
3001 3002 3001 3004 3001 2998 2993 2998 3006 3012 3019 3019 3018 3019 3020 3023 3027 3031 3034 3035 3038 3042 3047 3053 3059 3066 3072 3079 3086 3093 3101 3107 3113 3118 3123 3128 3132 3136 3140 3144 3146 3149 3151 3154
3002 3001 3002 3003 3002 2999 2999 3002 3007 3011 3016 3018 3019 3020 3022 3024 3027 3030 3034 3037 3039 3041 3045 3050 3056 3062 3068 3073 3080 3088 3096 3102 3107 3112 3117 3120 3125 3130 3134 3137 3140 3143 3146 3149
3007 3003 3004 3003 3002 3000 2998 2999 3006 3009 3011 3016 3020 3020 3021 3025 3028 3031 3034 3038 3042 3045 3048 3051 3055 3060 3064 3070 3076 3083 3089 3095 3100 3105 3110 3115 3119 3123 3127 3130 3133 3137 3140 3142
3008 3005 3001 3004 3002 3001 3001 3000 3003 3008 3010 3015 3017 3018 3020 3023 3027 3031 3034 3037 3042 3047 3049 3053 3057 3060 3064 3068 3074 3079 3084 3089 3093 3097 3102 3107 3112 3115 3119 3123 3126 3128 3131 3133